Regional Weather Roundup
Issued by NWS

Home | Current Version | Previous Version | Graphics & Text | Print | Product List | Glossary On
Versions: 1 2 3 4 5 6 7 8 9 10 11 12 13 14 15 16 17 18 19 20 21 22 23 24 25 26 27 28 29 30 31 32 33 34 35 36 37 38 39 40 41 42 43 44 45 46 47 48 49 50
974
ASUS43 KBIS 110931
RWRND
NORTH DAKOTA REGIONAL WEATHER ROUNDUP
NATIONAL WEATHER SERVICE EASTERN NORTH DAKOTA/GRAND FORKS ND
300 AM CST THU FEB 11 2016

  NOTE: "FAIR" INDICATES FEW OR NO CLOUDS BELOW 12,000 FEET WITH NO
  SIGNIFICANT WEATHER AND/OR OBSTRUCTIONS TO VISIBILITY.

NDZ001>003-009>011-017-111000-
...NORTHWEST NORTH DAKOTA...

CITY           SKY/WX    TMP DP  RH WIND       PRES   REMARKS
WILLISTON      CLOUDY    26  22  84 S3        30.10S
MINOT          CLOUDY    15   6  67 CALM      30.15F
MINOT AFB      CLOUDY    12   9  89 SE1       30.16F
$$

NDZ018>021-031>035-040>046-111000-
...SOUTHWEST NORTH DAKOTA...

CITY           SKY/WX    TMP DP  RH WIND       PRES   REMARKS
BISMARCK       CLOUDY    18  12  77 SE5       30.19S WCI  11
DICKINSON      CLOUDY    25  21  85 E7        30.04S WCI  17
GARRISON         N/A     14   9  80 S5        30.14F WCI   6
HETTINGER      CLOUDY    28  24  85 S6        30.08F WCI  22
$$

NDZ004>008-012>016-024-026-027-054-111000-
...NORTHEAST NORTH DAKOTA...

CITY           SKY/WX    TMP DP  RH WIND       PRES   REMARKS
GRAND FORKS    PTCLDY     2  -4  76 CALM      30.28F
GRAND FORKS AF CLOUDY    -2  -7  79 W3        30.28S
DEVILS LAKE    FLURRIES   0  -6  78 CALM      30.23S
$$

NDZ022-023-025-028>030-036>039-047>053-111000-
...SOUTHEAST NORTH DAKOTA...

CITY           SKY/WX    TMP DP  RH WIND       PRES   REMARKS
JAMESTOWN      CLOUDY     5   1  83 S6        30.21S WCI  -6
FARGO          CLOUDY     1  -5  75 CALM      30.28S
WAHPETON       MOSUNNY   -4  -9  77 W8        30.29S WCI -19
$$




USA.gov is the U.S. government's official web portal to all federal, state and local government web resources and services.